Weather in Jogeva

Estonia     58°44′24″N   26°23′24″E
temp.,
°C
wind,
m/s
gust,
m/s
humid.,
%
clouds,
%
prec.,
mm/h
press.,
hPa
HPBL,
m
12 april, mon
mon1200:00+5ese4996100 0.2 1024314
03:00+6se4119571 0.6 1023320
06:00+6se31392100 0.0 1021274
09:00+9sse41574100 0.0 1021575
12:00+14s61356100 0.0 10211045
15:00+16s51250100 0.0 10201452
18:00+14s51051100 0.0 10191490
21:00+10sse2870100 0.0 1018173
13 april, tue
tue1300:00+8s31078100 0.0 1018244
03:00+8s2882100 0.0 1017278
06:00+7ssw2488100 0.0 1017110
09:00+7w3591100 0.1 1019533
12:00+5wnw3586100 0.1 1021559
15:00+6wnw2474100 0.1 1021745
18:00+7s1168100 0.0 102154
21:00+5s1169100 0.1 102233
14 april, wed
wed1400:00+4wsw2574100 0.0 1021173
03:00+2wnw2475100 0.0 1021120
06:00+2nw2480100 0.0 1020143
09:00+4nnw2368100 0.0 1020362
12:00+7nw235478 0.0 10211093
15:00+9nnw334626 0.0 10201649
18:00+9n334566 0.0 10211660
21:00+4nne237044 0.0 102365
15 april, thu
thu1500:00+1n257894 0.0 1024123
03:00+1n278154 0.0 1025198
06:00+1nne3118566 0.0 1025308
09:00+4nne4869100 0.0 1026432
12:00+7nne565191 0.0 1026999
15:00+8nne564318 0.0 10261205
18:00+7nne575638 0.0 1026925
21:00+4nne5126623 0.0 1027507
16 april, fri
fri1600:00+2ne412685 0.0 1027458
03:00+2ne414724 0.0 1027474
06:00+1ne514751 0.0 1028497
09:00+5ne513634 0.0 1029644
12:00+9ene69461 0.0 1029991
15:00+11ene69365 0.0 10291317
18:00+10ne594623 0.0 10291323
21:00+6ne4125956 0.0 1031527